Sparta, WI

6:47 AM CST on November 19, 2017 (GMT -0600)
Sparta-Fort McCoy

Weather History for KCMY - September, 2013

Change the Weather History Date:

Saturday, September 28, 2013

  Actual Average Record
Temperature  
Mean Temperature 62 °F -  
Max Temperature 78 °F 66 °F 84 °F (1971)
Min Temperature 46 °F 41 °F 25 °F (1991)
Degree Days  
Heating Degree Days 3    
Growing Degree Days 12 (Base 50)    
Moisture  
Dew Point 53 °F    
Average Humidity 74    
Maximum Humidity 99    
Minimum Humidity 47    
Precipitation  
Precipitation 0.27 in - - ()
Sea Level Pressure  
Sea Level Pressure 29.90 in    
Wind  
Wind Speed 9 mph (SSE)    
Max Wind Speed 23 mph    
Max Gust Speed 32 mph    
Visibility 8 miles    
Events Fog , Rain    
Averages and records for this station are not official NWS values.
T = Trace of Precipitation, MM = Missing Value Source: NWS Daily Summary

Daily Weather History Graph

Daily Weather History Graph

Search for Another Location

Airport or City:

Trip Planner

Search our weather history database for the weather conditions in past years. The results will help you decide how hot, cold, wet, or windy it might be!

Date:

Astronomy

Sep. 28, 2013 Rise Set
Actual Time 6:57 AM CDT 6:48 PM CDT
Civil Twilight 6:28 AM CDT 7:17 PM CDT
Nautical Twilight 5:55 AM CDT 7:50 PM CDT
Astronomical Twilight 5:21 AM CDT 8:24 PM CDT
Moon 12:34 AM CDT (9/28) 3:17 PM CDT (9/28)
Length of Visible Light 12h 48m
Length of Day
11h 51m
Waning Crescent, 36% of the Moon is Illuminated
Sep 28
Waning Crescent
Oct 4
New
Oct 11
First Quarter
Oct 18
Full
Oct 26
Last Quarter

Hourly Weather History & Observations

Time (CDT) Temp. Dew Point Humidity Pressure Visibility Wind Dir Wind Speed Gust Speed Precip Events Conditions
12:15 AM 61.0 °F 48.4 °F 63% 29.99 in 10.0 mi ESE 6.9 mph - N/A   Clear
12:35 AM 58.1 °F 48.6 °F 71% 29.98 in 10.0 mi ESE 6.9 mph - N/A   Clear
12:55 AM 56.8 °F 48.2 °F 73% 29.98 in 10.0 mi ESE 4.6 mph - N/A   Clear
1:15 AM 57.0 °F 48.0 °F 72% 29.98 in 10.0 mi Calm Calm - N/A   Clear
1:35 AM 59.2 °F 48.6 °F 68% 29.98 in 10.0 mi ESE 4.6 mph - N/A   Clear
1:55 AM 58.5 °F 48.6 °F 70% 29.97 in 10.0 mi ESE 8.1 mph - N/A   Clear
2:15 AM 59.9 °F 48.2 °F 65% 29.97 in 10.0 mi SE 6.9 mph - N/A   Clear
2:35 AM 60.3 °F 48.2 °F 64% 29.96 in 10.0 mi ESE 6.9 mph - N/A   Clear
2:55 AM 61.2 °F 48.0 °F 62% 29.95 in 10.0 mi SSE 9.2 mph - N/A   Clear
3:15 AM 64.9 °F 47.3 °F 53% 29.95 in 10.0 mi SSE 10.4 mph 16.1 mph N/A   Clear
3:35 AM 64.8 °F 47.5 °F 53% 29.94 in 10.0 mi SSE 8.1 mph - N/A   Clear
3:55 AM 64.6 °F 47.7 °F 54% 29.94 in 10.0 mi SSE 9.2 mph - N/A   Clear
4:15 AM 64.6 °F 48.2 °F 55% 29.94 in 10.0 mi SE 11.5 mph 18.4 mph N/A   Scattered Clouds
4:35 AM 64.4 °F 48.4 °F 56% 29.93 in 10.0 mi SSE 9.2 mph - N/A   Scattered Clouds
4:55 AM 64.8 °F 49.1 °F 57% 29.93 in 10.0 mi SSE 13.8 mph 18.4 mph N/A   Clear
5:15 AM 64.9 °F 49.3 °F 57% 29.93 in 10.0 mi SSE 12.7 mph 18.4 mph N/A   Scattered Clouds
5:35 AM 64.6 °F 49.6 °F 58% 29.92 in 10.0 mi SSE 10.4 mph 20.7 mph N/A   Clear
5:55 AM 64.6 °F 50.0 °F 59% 29.93 in 10.0 mi South 12.7 mph 20.7 mph N/A   Scattered Clouds
6:15 AM 64.8 °F 50.7 °F 60% 29.93 in 10.0 mi SSE 17.3 mph 24.2 mph N/A   Scattered Clouds
6:35 AM 64.8 °F 51.1 °F 61% 29.92 in 10.0 mi SSE 9.2 mph 18.4 mph N/A   Scattered Clouds
6:55 AM 64.8 °F 51.4 °F 62% 29.92 in 10.0 mi SSE 13.8 mph 23.0 mph N/A   Scattered Clouds
7:15 AM 64.6 °F 51.1 °F 62% 29.92 in 10.0 mi SSE 13.8 mph - N/A   Mostly Cloudy
7:35 AM 65.5 °F 51.8 °F 61% 29.92 in 10.0 mi SSE 16.1 mph 21.9 mph N/A   Overcast
7:55 AM 65.7 °F 52.0 °F 61% 29.91 in 10.0 mi SSE 10.4 mph 20.7 mph N/A   Overcast
8:15 AM 66.2 °F 52.7 °F 62% 29.91 in 10.0 mi South 15.0 mph 23.0 mph N/A   Overcast
8:35 AM 66.4 °F 52.9 °F 62% 29.90 in 10.0 mi South 12.7 mph 20.7 mph N/A   Mostly Cloudy
8:55 AM 67.6 °F 53.6 °F 61% 29.90 in 10.0 mi SSE 13.8 mph 19.6 mph N/A   Scattered Clouds
9:15 AM 68.7 °F 53.8 °F 59% 29.89 in 10.0 mi SSE 10.4 mph 17.3 mph N/A   Scattered Clouds
9:35 AM 69.6 °F 54.3 °F 58% 29.89 in 10.0 mi SSE 10.4 mph 18.4 mph N/A   Clear
9:55 AM 70.7 °F 54.7 °F 57% 29.87 in 10.0 mi SSE 11.5 mph 20.7 mph N/A   Mostly Cloudy
10:15 AM 72.9 °F 55.6 °F 55% 29.86 in 10.0 mi SSE 15.0 mph 21.9 mph N/A   Mostly Cloudy
10:35 AM 72.5 °F 55.8 °F 56% 29.85 in 10.0 mi SSE 15.0 mph 26.5 mph N/A   Clear
10:55 AM 75.0 °F 56.1 °F 52% 29.84 in 10.0 mi SSE 15.0 mph 26.5 mph N/A   Clear
11:15 AM 76.8 °F 56.1 °F 49% 29.82 in 10.0 mi South 20.7 mph 32.2 mph N/A   Clear
11:35 AM 77.7 °F 55.9 °F 47% 29.81 in 10.0 mi SSE 19.6 mph 31.1 mph N/A   Clear
11:55 AM 76.5 °F 56.1 °F 49% 29.80 in 10.0 mi South 16.1 mph 26.5 mph N/A   Clear
12:15 PM 78.3 °F 56.5 °F 47% 29.80 in 10.0 mi South 18.4 mph 25.3 mph N/A   Scattered Clouds
12:35 PM 76.6 °F 55.9 °F 49% 29.79 in 10.0 mi South 23.0 mph 31.1 mph N/A   Mostly Cloudy
12:55 PM 75.9 °F 56.8 °F 51% 29.78 in 10.0 mi South 18.4 mph 25.3 mph N/A   Overcast
1:15 PM 75.4 °F 56.8 °F 52% 29.78 in 10.0 mi South 23.0 mph 32.2 mph N/A   Overcast
1:35 PM 74.3 °F 57.4 °F 55% 29.78 in 10.0 mi South 16.1 mph 21.9 mph N/A   Overcast
1:55 PM 72.7 °F 58.6 °F 61% 29.78 in 10.0 mi South 10.4 mph 20.7 mph N/A Rain Rain
2:15 PM 69.6 °F 60.8 °F 73% 29.79 in 7.0 mi South 15.0 mph 24.2 mph N/A Rain Light Rain
2:35 PM 67.3 °F 62.1 °F 83% 29.79 in 4.0 mi South 13.8 mph 28.8 mph 0.02 in Rain Light Rain
2:55 PM 66.6 °F 63.7 °F 90% 29.79 in 5.0 mi South 15.0 mph 20.7 mph 0.06 in Rain Rain
3:15 PM 66.6 °F 63.9 °F 91% 29.79 in 4.0 mi South 9.2 mph 20.7 mph 0.04 in Rain Rain
3:35 PM 66.4 °F 63.9 °F 92% 29.79 in 5.0 mi South 9.2 mph 21.9 mph 0.05 in Rain Rain
3:55 PM 66.2 °F 64.0 °F 93% 29.79 in 4.0 mi South 11.5 mph 18.4 mph 0.07 in Rain Rain
4:15 PM 61.0 °F 58.6 °F 92% 29.84 in 3.0 mi WNW 15.0 mph 20.7 mph 0.09 in Rain Rain
4:35 PM 58.1 °F 55.8 °F 92% 29.86 in 4.0 mi WSW 9.2 mph 20.7 mph 0.11 in Rain Rain
4:55 PM 57.0 °F 55.4 °F 94% 29.87 in 4.0 mi WSW 4.6 mph - 0.11 in   Drizzle
5:15 PM 56.3 °F 55.0 °F 96% 29.87 in 4.0 mi Calm Calm - N/A   Drizzle
5:35 PM 56.3 °F 55.4 °F 97% 29.89 in 7.0 mi West 5.8 mph - 0.02 in Rain Rain
5:55 PM 56.3 °F 55.2 °F 96% 29.90 in 10.0 mi West 9.2 mph - 0.02 in   Overcast
6:15 PM 55.6 °F 53.6 °F 93% 29.91 in 10.0 mi West 8.1 mph - 0.01 in Rain Light Rain
6:35 PM 55.6 °F 53.4 °F 92% 29.91 in 10.0 mi West 5.8 mph - 0.01 in   Light Drizzle
6:55 PM 55.4 °F 53.6 °F 94% 29.91 in 10.0 mi Calm Calm - 0.01 in   Overcast
7:15 PM 54.7 °F 53.1 °F 94% 29.92 in 10.0 mi Calm Calm - N/A   Mostly Cloudy
7:35 PM 53.8 °F 52.5 °F 95% 29.92 in 10.0 mi Calm Calm - N/A   Scattered Clouds
7:55 PM 53.2 °F 52.3 °F 97% 29.93 in 10.0 mi South 3.5 mph - N/A   Clear
8:15 PM 52.7 °F 51.8 °F 97% 29.93 in 10.0 mi Calm Calm - N/A   Clear
8:35 PM 50.9 °F 50.2 °F 97% 29.94 in 10.0 mi Calm Calm - N/A   Clear
8:55 PM 50.7 °F 50.2 °F 98% 29.95 in 10.0 mi Calm Calm - N/A   Scattered Clouds
9:15 PM 49.8 °F 49.3 °F 98% 29.95 in 10.0 mi Calm Calm - N/A   Mostly Cloudy
9:35 PM 48.2 °F 47.8 °F 99% 29.96 in 2.5 mi Calm Calm - N/A   Mostly Cloudy
9:55 PM 48.4 °F 48.0 °F 99% 29.97 in 1.2 mi Calm Calm - N/A   Overcast
10:15 PM 49.1 °F 48.7 °F 99% 29.97 in 1.8 mi Calm Calm - N/A   Mostly Cloudy
10:35 PM 47.8 °F 47.7 °F 99% 29.97 in 0.5 mi Calm Calm - N/A Fog Fog
10:55 PM 48.4 °F 48.2 °F 99% 29.98 in 0.8 mi Calm Calm - N/A   Overcast
11:15 PM 48.0 °F 47.8 °F 99% 29.98 in 1.2 mi Calm Calm - N/A   Mostly Cloudy
11:35 PM 46.2 °F 46.0 °F 99% 29.98 in 0.8 mi Calm Calm - N/A   Mostly Cloudy
11:55 PM 47.1 °F 46.9 °F 99% 29.98 in 10.0 mi Calm Calm - N/A   Scattered Clouds